FW8265 Weather Reports


Display with metric or nautical units.
time (UTC)temp
F
wind
direction
speed
MPH
gust
MPH
rain 1hr
in
rain 24hr
in
rain mn
in
humidity
%
barometer
mb
20260508204550 70 274 1.0 7.0 0.00 0.00 0.00 42 1010.2
20260508203059 69 0 1.0 8.0 0.00 0.00 0.00 44 1010.4
20260508201550 68 253 1.0 11.0 0.00 0.00 0.00 44 1010.6
20260508194552 72 0 2.0 9.0 0.00 0.00 0.00 42 1010.9
20260508193058 72 199 2.0 13.0 0.00 0.00 0.00 39 1011.0
20260508191551 72 140 2.0 13.0 0.00 0.00 0.00 44 1011.2
20260508190051 71 160 2.0 10.0 0.00 0.00 0.00 44 1011.3
20260508184547 71 241 4.0 16.0 0.00 0.00 0.00 42 1011.7
20260508183104 70 0 1.0 11.0 0.00 0.00 0.00 43 1011.9
20260508181601 71 293 2.0 8.0 0.00 0.00 0.00 45 1012.2
20260508180049 70 155 3.0 9.0 0.00 0.00 0.00 45 1012.3
20260508174551 70 223 3.0 9.0 0.00 0.00 0.00 48 1012.4
20260508173048 69 211 1.0 6.0 0.00 0.00 0.00 45 1013.0
20260508171552 69 267 2.0 14.0 0.00 0.00 0.00 45 1013.3
20260508170051 69 251 2.0 9.0 0.00 0.00 0.00 47 1013.7
20260508164552 68 244 1.0 12.0 0.00 0.00 0.00 47 1013.8
20260508163050 68 159 3.0 10.0 0.00 0.00 0.00 46 1014.0
20260508161549 68 146 2.0 11.0 0.00 0.00 0.00 49 1014.2
20260508160056 67 75 2.0 10.0 0.00 0.00 0.00 48 1014.4
20260508154551 67 0 1.0 7.0 0.00 0.00 0.00 52 1014.5
20260508153051 66 201 2.0 10.0 0.00 0.00 0.00 51 1014.6
20260508151554 65 201 2.0 10.0 0.00 0.00 0.00 53 1014.9
20260508150107 65 173 2.0 8.0 0.00 0.00 0.00 50 1014.7
20260508144555 65 210 2.0 7.0 0.00 0.00 0.00 49 1014.9
20260508143050 63 0 2.0 13.0 0.00 0.00 0.00 52 1015.0
20260508141600 62 218 1.0 8.0 0.00 0.00 0.00 55 1015.2
20260508140058 60 271 1.0 6.0 0.00 0.00 0.00 59 1015.2
20260508134548 58 279 1.0 4.0 0.00 0.00 0.00 60 1015.3
20260508133045 56 155 1.0 7.0 0.00 0.00 0.00 68 1015.4
20260508131553 54 0 1.0 8.0 0.00 0.00 0.00 68 1015.3
20260508130048 53 0 0.0 9.0 0.00 0.00 0.00 69 1015.1
20260508124548 52 153 1.0 7.0 0.00 0.00 0.00 71 1015.1
20260508123048 50 0 1.0 5.0 0.00 0.00 0.00 74 1015.1
20260508121549 48 148 1.0 3.0 0.00 0.00 0.00 77 1015.1
20260508120048 46 0 0.0 5.0 0.00 0.00 0.00 79 1014.9
20260508114550 45 0 0.0 3.0 0.00 0.00 0.00 83 1015.0
20260508113117 44 151 0.0 2.0 0.00 0.00 0.00 83 1014.8
20260508111545 44 0 0.0 3.0 0.00 0.00 0.00 84 1014.5
20260508110050 44 0 0.0 1.0 0.00 0.00 0.00 84 1014.5
20260508104557 43 0 0.0 3.0 0.00 0.00 0.00 87 1014.6
20260508103055 42 0 0.0 0.0 0.00 0.00 0.00 89 1014.4
20260508101550 42 0 0.0 1.0 0.00 0.00 0.00 91 1014.4
20260508100048 41 0 0.0 0.0 0.00 0.00 0.00 91 1014.4
20260508094549 41 0 0.0 0.0 0.00 0.00 0.00 91 1014.3
20260508093046 41 0 0.0 0.0 0.00 0.00 0.00 90 1014.4
20260508091549 41 0 0.0 0.0 0.00 0.00 0.00 91 1014.4
20260508090051 40 0 0.0 0.0 0.00 0.00 0.00 91 1014.4
20260508084547 40 0 0.0 0.0 0.00 0.00 0.00 90 1014.4
20260508083053 40 0 0.0 0.0 0.00 0.00 0.00 90 1014.4
20260508081550 41 0 0.0 0.0 0.00 0.00 0.00 90 1014.3
20260508080051 41 0 0.0 0.0 0.00 0.00 0.00 89 1014.4
20260508074553 41 0 0.0 0.0 0.00 0.00 0.00 88 1014.4
20260508073102 42 0 0.0 0.0 0.00 0.00 0.00 88 1014.4
20260508071553 42 0 0.0 0.0 0.00 0.00 0.00 87 1014.4
20260508070054 42 0 0.0 0.0 0.00 0.00 0.00 87 1014.4
20260508064604 42 0 0.0 0.0 0.00 0.00 0.00 86 1014.7
20260508063047 42 0 0.0 0.0 0.00 0.00 0.00 86 1015.0
20260508061557 42 0 0.0 0.0 0.00 0.00 0.00 86 1015.1
20260508060052 42 0 0.0 0.0 0.00 0.00 0.00 84 1015.1
20260508054612 43 0 0.0 0.0 0.00 0.00 0.00 85 1015.2
20260508053051 43 0 0.0 0.0 0.00 0.00 0.00 85 1015.3
20260508051549 43 0 0.0 0.0 0.00 0.00 0.00 84 1015.1
20260508050054 44 0 0.0 0.0 0.00 0.00 0.00 83 1015.0
20260508044551 44 0 0.0 0.0 0.00 0.00 0.00 82 1015.1
20260508043056 44 0 0.0 0.0 0.00 0.00 0.00 82 1015.2
20260508041551 44 0 0.0 0.0 0.00 0.00 0.00 83 1014.9
20260508034548 45 0 0.0 0.0 0.00 0.00 0.00 79 1015.3
20260508033050 45 0 0.0 0.0 0.00 0.00 0.00 78 1015.2
20260508031557 45 0 0.0 0.0 0.00 0.00 0.00 78 1015.0
20260508030057 46 0 0.0 0.0 0.00 0.00 0.00 80 1015.1
20260508024550 46 0 0.0 0.0 0.00 0.00 0.00 78 1014.9
20260508023047 47 0 0.0 0.0 0.00 0.00 0.00 77 1014.9
20260508021559 47 0 0.0 0.0 0.00 0.00 0.00 75 1014.9
20260508020050 48 0 0.0 0.0 0.00 0.00 0.00 70 1015.0
20260508014548 49 0 0.0 0.0 0.00 0.00 0.00 68 1014.9
20260508013047 50 0 0.0 0.0 0.00 0.00 0.00 67 1014.7
20260508011550 51 0 0.0 0.0 0.00 0.00 0.00 64 1014.6
20260508010046 52 0 0.0 0.0 0.00 0.00 0.00 62 1014.5
20260508004549 54 0 0.0 0.0 0.00 0.00 0.00 59 1014.5
20260508003051 55 0 0.0 0.0 0.00 0.00 0.00 55 1014.3
20260508001547 56 0 0.0 0.0 0.00 0.00 0.00 47 1014.1
20260508000113 57 0 0.0 0.0 0.00 0.00 0.00 46 1014.0
20260507234554 58 0 0.0 4.0 0.00 0.00 0.00 44 1013.9
20260507233049 58 0 0.0 3.0 0.00 0.00 0.00 41 1013.9
20260507231604 59 0 0.0 2.0 0.00 0.00 0.00 40 1013.8
20260507230056 60 198 0.0 3.0 0.00 0.00 0.00 40 1014.0
20260507224552 62 0 0.0 3.0 0.00 0.00 0.00 38 1014.0
20260507223048 63 0 0.0 2.0 0.00 0.00 0.00 38 1013.9
20260507221551 63 0 0.0 3.0 0.00 0.00 0.00 40 1013.9
20260507220048 63 0 0.0 4.0 0.00 0.00 0.00 38 1014.0
20260507214551 62 161 0.0 6.0 0.00 0.00 0.00 41 1014.1
20260507213050 62 194 0.0 5.0 0.00 0.00 0.00 38 1014.1
20260507211555 63 290 1.0 7.0 0.00 0.00 0.00 38 1014.1
20260507210052 63 0 1.0 4.0 0.00 0.00 0.00 41 1014.0